Tracking 19800 objects as of 23-Jul-2019
HD Live streaming from Space Station
objects crossing your sky now

ERS 1

Track ERS 1 now!
10-day predictions
ERS 1 is classified as:


NORAD ID: 21574
Int'l Code: 1991-050A
Perigee: 749.9 km
Apogee: 796.6 km
Inclination: 98.6 °
Period: 100.2 minutes
Semi major axis: 7144 km
RCS: 11.0086 m2 (large)
Launch date: July 17, 1991
Source: European Space Agency (ESA)
Launch site: FRENCH GUIANA (FRGUI)
aabbcc
Your satellite tracking list
Your tracking list is empty




NASA's NSSDC Master Catalog

Two Line Element Set (TLE):
1 21574U 91050A   19203.84344313 +.00000010 +00000-0 +17918-4 0  9990
2 21574 098.5513 152.9823 0032661 189.4210 170.6367 14.37702260467611
Source of the keplerian elements: AFSPC